Private Wetterstation Sandau
Wetterdaten: Donnerstag, 24.01.2013
Datum Zeit Temp. A. Feuchte A. Luftdruck Regen Wind Richtung Richtung Taupunkt Windchill
24.01.2013 00:01 -4,2 C 86 % 1012,2 hPa 0,0 l/m 1,4 km/h (1 Bft) SW 225 -6,2 C -4,2 C
24.01.2013 00:06 -4,2 C 86 % 1012,2 hPa 0,0 l/m 0,0 km/h (0 Bft) SW 225 -6,2 C -4,2 C
24.01.2013 00:11 -4,2 C 86 % 1012,2 hPa 0,0 l/m 0,0 km/h (0 Bft) SW 225 -6,2 C -4,2 C
24.01.2013 00:16 -4,2 C 86 % 1012,2 hPa 0,0 l/m 2,5 km/h (1 Bft) W-SW 247 -6,2 C -4,2 C
24.01.2013 00:21 -4,2 C 86 % 1012,1 hPa 0,0 l/m 0,0 km/h (0 Bft) W-SW 247 -6,2 C -4,2 C
24.01.2013 00:26 -4,2 C 86 % 1012,1 hPa 0,0 l/m 0,0 km/h (0 Bft) W-SW 247 -6,2 C -4,2 C
24.01.2013 00:31 -4,2 C 86 % 1012,2 hPa 0,0 l/m 0,0 km/h (0 Bft) W 270 -6,2 C -4,2 C
24.01.2013 00:36 -4,2 C 86 % 1012,1 hPa 0,0 l/m 0,0 km/h (0 Bft) W 270 -6,2 C -4,2 C
24.01.2013 00:41 -4,2 C 86 % 1012,1 hPa 0,0 l/m 1,4 km/h (1 Bft) W 270 -6,2 C -4,2 C
24.01.2013 00:46 -4,2 C 86 % 1012,2 hPa 0,0 l/m 0,0 km/h (0 Bft) W 270 -6,2 C -4,2 C
24.01.2013 00:51 -4,2 C 86 % 1012,2 hPa 0,0 l/m 1,1 km/h (1 Bft) W 270 -6,2 C -4,2 C
24.01.2013 00:56 -4,2 C 86 % 1012,1 hPa 0,0 l/m 0,0 km/h (0 Bft) W 270 -6,2 C -4,2 C
24.01.2013 01:01 -4,2 C 86 % 1012,0 hPa 0,0 l/m 1,1 km/h (1 Bft) W 270 -6,2 C -4,2 C
24.01.2013 01:06 -4,2 C 86 % 1012,1 hPa 0,0 l/m 1,1 km/h (1 Bft) W 270 -6,2 C -4,2 C
24.01.2013 01:11 -4,2 C 86 % 1012,2 hPa 0,0 l/m 0,0 km/h (0 Bft) W 270 -6,2 C -4,2 C
24.01.2013 01:16 -4,2 C 86 % 1012,1 hPa 0,0 l/m 0,0 km/h (0 Bft) W 270 -6,2 C -4,2 C
24.01.2013 01:21 -4,2 C 86 % 1012,1 hPa 0,0 l/m 0,0 km/h (0 Bft) W 270 -6,2 C -4,2 C
24.01.2013 01:26 -4,2 C 86 % 1011,9 hPa 0,0 l/m 0,0 km/h (0 Bft) W 270 -6,2 C -4,2 C
24.01.2013 01:31 -4,2 C 86 % 1012,1 hPa 0,0 l/m 0,0 km/h (0 Bft) W 270 -6,2 C -4,2 C
24.01.2013 01:36 -4,2 C 86 % 1012,1 hPa 0,0 l/m 0,0 km/h (0 Bft) W 270 -6,2 C -4,2 C
24.01.2013 01:41 -4,2 C 86 % 1012,1 hPa 0,0 l/m 0,0 km/h (0 Bft) W 270 -6,2 C -4,2 C
24.01.2013 01:46 -4,2 C 86 % 1012,0 hPa 0,0 l/m 0,0 km/h (0 Bft) W 270 -6,2 C -4,2 C
24.01.2013 01:51 -4,2 C 86 % 1012,0 hPa 0,0 l/m 0,0 km/h (0 Bft) W 270 -6,2 C -4,2 C
24.01.2013 01:56 -4,2 C 86 % 1012,1 hPa 0,0 l/m 0,0 km/h (0 Bft) W 270 -6,2 C -4,2 C
24.01.2013 02:01 -4,2 C 86 % 1011,9 hPa 0,0 l/m 0,0 km/h (0 Bft) W 270 -6,2 C -4,2 C
24.01.2013 02:06 -4,2 C 86 % 1012,0 hPa 0,0 l/m 0,0 km/h (0 Bft) W 270 -6,2 C -4,2 C
24.01.2013 02:11 -4,2 C 86 % 1012,0 hPa 0,0 l/m 0,0 km/h (0 Bft) W 270 -6,2 C -4,2 C
24.01.2013 02:16 -4,2 C 86 % 1012,0 hPa 0,0 l/m 0,0 km/h (0 Bft) W 270 -6,2 C -4,2 C
24.01.2013 02:21 -4,2 C 86 % 1012,0 hPa 0,0 l/m 0,0 km/h (0 Bft) W 270 -6,2 C -4,2 C
24.01.2013 02:26 -4,2 C 86 % 1012,1 hPa 0,0 l/m 0,0 km/h (0 Bft) W 270 -6,2 C -4,2 C
24.01.2013 02:31 -4,2 C 86 % 1012,2 hPa 0,0 l/m 0,0 km/h (0 Bft) W 270 -6,2 C -4,2 C
24.01.2013 02:36 -4,2 C 86 % 1012,2 hPa 0,0 l/m 0,0 km/h (0 Bft) W 270 -6,2 C -4,2 C
24.01.2013 02:41 -4,2 C 86 % 1012,0 hPa 0,0 l/m 0,0 km/h (0 Bft) W 270 -6,2 C -4,2 C
24.01.2013 02:46 -4,2 C 86 % 1012,0 hPa 0,0 l/m 0,0 km/h (0 Bft) W 270 -6,2 C -4,2 C
24.01.2013 02:51 -4,2 C 86 % 1012,1 hPa 0,0 l/m 0,0 km/h (0 Bft) W 270 -6,2 C -4,2 C
24.01.2013 02:56 -4,2 C 86 % 1012,0 hPa 0,0 l/m 0,0 km/h (0 Bft) W 270 -6,2 C -4,2 C
24.01.2013 03:01 -4,2 C 86 % 1012,0 hPa 0,0 l/m 0,0 km/h (0 Bft) W 270 -6,2 C -4,2 C
24.01.2013 03:06 -4,2 C 86 % 1012,0 hPa 0,0 l/m 0,0 km/h (0 Bft) W 270 -6,2 C -4,2 C
24.01.2013 03:11 -4,2 C 86 % 1012,1 hPa 0,0 l/m 0,0 km/h (0 Bft) W 270 -6,2 C -4,2 C
24.01.2013 03:16 -4,2 C 86 % 1012,1 hPa 0,0 l/m 0,0 km/h (0 Bft) W 270 -6,2 C -4,2 C
24.01.2013 03:21 -4,2 C 86 % 1012,1 hPa 0,0 l/m 0,0 km/h (0 Bft) W 270 -6,2 C -4,2 C
24.01.2013 03:26 -4,1 C 86 % 1012,1 hPa 0,0 l/m 0,0 km/h (0 Bft) W 270 -6,1 C -4,1 C
24.01.2013 03:31 -4,1 C 86 % 1012,1 hPa 0,0 l/m 0,0 km/h (0 Bft) W 270 -6,1 C -4,1 C
24.01.2013 03:36 -4,1 C 86 % 1012,2 hPa 0,0 l/m 0,0 km/h (0 Bft) W 270 -6,1 C -4,1 C
24.01.2013 03:41 -4,1 C 86 % 1012,0 hPa 0,0 l/m 0,0 km/h (0 Bft) W 270 -6,1 C -4,1 C
24.01.2013 03:46 -4,1 C 86 % 1012,0 hPa 0,0 l/m 0,0 km/h (0 Bft) W 270 -6,1 C -4,1 C
24.01.2013 03:51 -4,1 C 86 % 1011,9 hPa 0,0 l/m 0,0 km/h (0 Bft) W 270 -6,1 C -4,1 C
24.01.2013 03:56 -4,1 C 86 % 1012,1 hPa 0,0 l/m 0,0 km/h (0 Bft) W 270 -6,1 C -4,1 C
24.01.2013 04:01 -4,1 C 87 % 1012,0 hPa 0,0 l/m 0,0 km/h (0 Bft) W 270 -5,9 C -4,1 C
24.01.2013 04:06 -4,1 C 87 % 1012,1 hPa 0,0 l/m 0,0 km/h (0 Bft) W 270 -5,9 C -4,1 C
24.01.2013 04:11 -4,2 C 87 % 1012,0 hPa 0,0 l/m 0,0 km/h (0 Bft) W-NW 292 -6,0 C -4,2 C
24.01.2013 04:16 -4,2 C 87 % 1012,0 hPa 0,0 l/m 0,0 km/h (0 Bft) W-NW 292 -6,0 C -4,2 C
24.01.2013 04:21 -4,2 C 87 % 1012,0 hPa 0,0 l/m 0,0 km/h (0 Bft) W-NW 292 -6,0 C -4,2 C
24.01.2013 04:26 -4,2 C 87 % 1012,0 hPa 0,0 l/m 0,0 km/h (0 Bft) W-NW 292 -6,0 C -4,2 C
24.01.2013 04:31 -4,2 C 87 % 1012,0 hPa 0,0 l/m 0,0 km/h (0 Bft) W-NW 292 -6,0 C -4,2 C
24.01.2013 04:36 -4,2 C 87 % 1012,1 hPa 0,0 l/m 0,0 km/h (0 Bft) W-NW 292 -6,0 C -4,2 C
24.01.2013 04:41 -4,2 C 87 % 1012,0 hPa 0,0 l/m 0,0 km/h (0 Bft) W-NW 292 -6,0 C -4,2 C
24.01.2013 04:46 -4,2 C 87 % 1012,0 hPa 0,0 l/m 0,0 km/h (0 Bft) W-NW 292 -6,0 C -4,2 C
24.01.2013 04:51 -4,2 C 87 % 1012,2 hPa 0,0 l/m 0,0 km/h (0 Bft) W-NW 292 -6,0 C -4,2 C
24.01.2013 04:56 -4,2 C 87 % 1012,1 hPa 0,0 l/m 0,0 km/h (0 Bft) W-NW 292 -6,0 C -4,2 C
24.01.2013 05:01 -4,2 C 87 % 1012,0 hPa 0,0 l/m 0,0 km/h (0 Bft) NW 315 -6,0 C -4,2 C
24.01.2013 05:06 -4,2 C 87 % 1012,1 hPa 0,0 l/m 1,1 km/h (1 Bft) O-NO 67 -6,0 C -4,2 C
24.01.2013 05:11 -4,2 C 87 % 1012,1 hPa 0,0 l/m 0,0 km/h (0 Bft) O-NO 67 -6,0 C -4,2 C
24.01.2013 05:16 -4,2 C 87 % 1012,1 hPa 0,0 l/m 0,0 km/h (0 Bft) O-NO 67 -6,0 C -4,2 C
24.01.2013 05:21 -4,2 C 87 % 1012,2 hPa 0,0 l/m 0,0 km/h (0 Bft) O-NO 67 -6,0 C -4,2 C
24.01.2013 05:26 -4,2 C 87 % 1012,1 hPa 0,0 l/m 0,0 km/h (0 Bft) O-NO 67 -6,0 C -4,2 C
24.01.2013 05:31 -4,2 C 87 % 1012,1 hPa 0,0 l/m 1,1 km/h (1 Bft) O-NO 67 -6,0 C -4,2 C
24.01.2013 05:36 -4,2 C 87 % 1012,2 hPa 0,0 l/m 1,4 km/h (1 Bft) O-NO 67 -6,0 C -4,2 C
24.01.2013 05:41 -4,2 C 87 % 1012,2 hPa 0,0 l/m 0,0 km/h (0 Bft) O-NO 67 -6,0 C -4,2 C
24.01.2013 05:46 -4,2 C 87 % 1012,4 hPa 0,0 l/m 0,0 km/h (0 Bft) O-NO 67 -6,0 C -4,2 C
24.01.2013 05:51 -4,2 C 87 % 1012,3 hPa 0,0 l/m 0,0 km/h (0 Bft) O-NO 67 -6,0 C -4,2 C
24.01.2013 05:56 -4,2 C 87 % 1012,4 hPa 0,0 l/m 0,0 km/h (0 Bft) O-NO 67 -6,0 C -4,2 C
24.01.2013 06:01 -4,1 C 87 % 1012,4 hPa 0,0 l/m 0,0 km/h (0 Bft) O-NO 67 -5,9 C -4,1 C
24.01.2013 06:06 -4,1 C 87 % 1012,5 hPa 0,0 l/m 0,0 km/h (0 Bft) O-NO 67 -5,9 C -4,1 C
24.01.2013 06:11 -4,1 C 87 % 1012,6 hPa 0,0 l/m 0,0 km/h (0 Bft) O-NO 67 -5,9 C -4,1 C
24.01.2013 06:16 -4,1 C 87 % 1012,5 hPa 0,0 l/m 0,0 km/h (0 Bft) O-NO 67 -5,9 C -4,1 C
24.01.2013 06:21 -4,1 C 87 % 1012,6 hPa 0,0 l/m 0,0 km/h (0 Bft) O-NO 67 -5,9 C -4,1 C
24.01.2013 06:26 -4,1 C 87 % 1012,6 hPa 0,0 l/m 0,0 km/h (0 Bft) O-NO 67 -5,9 C -4,1 C
24.01.2013 06:31 -4,1 C 87 % 1012,5 hPa 0,0 l/m 0,0 km/h (0 Bft) O-NO 67 -5,9 C -4,1 C
24.01.2013 06:36 -4,1 C 87 % 1012,6 hPa 0,0 l/m 0,0 km/h (0 Bft) O-NO 67 -5,9 C -4,1 C
24.01.2013 06:41 -4,1 C 87 % 1012,6 hPa 0,0 l/m 2,5 km/h (1 Bft) O-NO 67 -5,9 C -4,1 C
24.01.2013 06:46 -4,1 C 87 % 1012,8 hPa 0,0 l/m 0,0 km/h (0 Bft) NO 45 -5,9 C -4,1 C
24.01.2013 06:51 -4,1 C 87 % 1012,8 hPa 0,0 l/m 0,0 km/h (0 Bft) NO 45 -5,9 C -4,1 C
24.01.2013 06:56 -4,1 C 87 % 1012,7 hPa 0,0 l/m 0,0 km/h (0 Bft) NO 45 -5,9 C -4,1 C
24.01.2013 07:01 -4,2 C 87 % 1012,8 hPa 0,0 l/m 0,0 km/h (0 Bft) O-NO 67 -6,0 C -4,2 C
24.01.2013 07:06 -4,1 C 87 % 1013,0 hPa 0,0 l/m 0,0 km/h (0 Bft) O-NO 67 -5,9 C -4,1 C
24.01.2013 07:11 -4,1 C 87 % 1013,1 hPa 0,0 l/m 0,0 km/h (0 Bft) O-NO 67 -5,9 C -4,1 C
24.01.2013 07:16 -4,1 C 87 % 1013,2 hPa 0,0 l/m 0,0 km/h (0 Bft) O-NO 67 -5,9 C -4,1 C
24.01.2013 07:21 -4,1 C 87 % 1013,1 hPa 0,0 l/m 0,0 km/h (0 Bft) O-NO 67 -5,9 C -4,1 C
24.01.2013 07:26 -4,1 C 87 % 1013,2 hPa 0,0 l/m 0,0 km/h (0 Bft) O-NO 67 -5,9 C -4,1 C
24.01.2013 07:31 -4,1 C 87 % 1013,4 hPa 0,0 l/m 0,0 km/h (0 Bft) O-NO 67 -5,9 C -4,1 C
24.01.2013 07:36 -4,1 C 87 % 1013,4 hPa 0,0 l/m 1,8 km/h (1 Bft) O-NO 67 -5,9 C -4,1 C
24.01.2013 07:41 -4,1 C 87 % 1013,5 hPa 0,0 l/m 0,0 km/h (0 Bft) O-NO 67 -5,9 C -4,1 C
24.01.2013 07:46 -4,1 C 87 % 1013,5 hPa 0,0 l/m 0,0 km/h (0 Bft) O-NO 67 -5,9 C -4,1 C
24.01.2013 07:51 -4,1 C 87 % 1013,5 hPa 0,0 l/m 0,0 km/h (0 Bft) O-NO 67 -5,9 C -4,1 C
24.01.2013 07:56 -4,1 C 87 % 1013,5 hPa 0,0 l/m 0,0 km/h (0 Bft) O-NO 67 -5,9 C -4,1 C
24.01.2013 08:01 -4,1 C 87 % 1013,5 hPa 0,0 l/m 0,0 km/h (0 Bft) O-NO 67 -5,9 C -4,1 C
24.01.2013 08:06 -4,1 C 87 % 1013,6 hPa 0,0 l/m 0,0 km/h (0 Bft) O-NO 67 -5,9 C -4,1 C
24.01.2013 08:11 -4,1 C 87 % 1013,6 hPa 0,0 l/m 0,0 km/h (0 Bft) O-NO 67 -5,9 C -4,1 C
24.01.2013 08:16 -4,1 C 87 % 1013,6 hPa 0,0 l/m 0,0 km/h (0 Bft) O-NO 67 -5,9 C -4,1 C
24.01.2013 08:21 -4,1 C 87 % 1013,7 hPa 0,0 l/m 0,0 km/h (0 Bft) O-NO 67 -5,9 C -4,1 C
24.01.2013 08:26 -4,1 C 87 % 1013,8 hPa 0,0 l/m 0,0 km/h (0 Bft) O-NO 67 -5,9 C -4,1 C
24.01.2013 08:31 -4,1 C 87 % 1013,8 hPa 0,0 l/m 0,0 km/h (0 Bft) O-NO 67 -5,9 C -4,1 C
24.01.2013 08:36 -4,1 C 87 % 1013,7 hPa 0,0 l/m 0,0 km/h (0 Bft) O-NO 67 -5,9 C -4,1 C
24.01.2013 08:41 -4,1 C 87 % 1013,8 hPa 0,0 l/m 0,0 km/h (0 Bft) O-NO 67 -5,9 C -4,1 C
24.01.2013 08:46 -3,9 C 87 % 1013,8 hPa 0,0 l/m 0,0 km/h (0 Bft) O-NO 67 -5,7 C -3,9 C
24.01.2013 08:51 -3,9 C 87 % 1013,8 hPa 0,0 l/m 1,1 km/h (1 Bft) O-NO 67 -5,7 C -3,9 C
24.01.2013 08:56 -3,9 C 87 % 1013,7 hPa 0,0 l/m 2,9 km/h (1 Bft) O-NO 67 -5,7 C -3,9 C
24.01.2013 09:01 -3,9 C 87 % 1014,0 hPa 0,0 l/m 0,0 km/h (0 Bft) O-NO 67 -5,7 C -3,9 C
24.01.2013 09:06 -3,8 C 87 % 1013,9 hPa 0,0 l/m 0,0 km/h (0 Bft) O-NO 67 -5,6 C -3,8 C
24.01.2013 09:11 -3,8 C 87 % 1014,0 hPa 0,0 l/m 0,0 km/h (0 Bft) O-NO 67 -5,6 C -3,8 C
24.01.2013 09:16 -3,8 C 87 % 1014,1 hPa 0,0 l/m 0,0 km/h (0 Bft) O-NO 67 -5,6 C -3,8 C
24.01.2013 09:21 -3,8 C 87 % 1014,1 hPa 0,0 l/m 0,0 km/h (0 Bft) O-NO 67 -5,6 C -3,8 C
24.01.2013 09:26 -3,7 C 87 % 1014,1 hPa 0,0 l/m 2,2 km/h (1 Bft) O-NO 67 -5,5 C -3,7 C
24.01.2013 09:31 -3,7 C 87 % 1014,2 hPa 0,0 l/m 0,0 km/h (0 Bft) O-NO 67 -5,5 C -3,7 C
24.01.2013 09:36 -3,6 C 87 % 1014,3 hPa 0,0 l/m 0,0 km/h (0 Bft) O-NO 67 -5,4 C -3,6 C
24.01.2013 09:41 -3,6 C 87 % 1014,2 hPa 0,0 l/m 2,2 km/h (1 Bft) O-NO 67 -5,4 C -3,6 C
24.01.2013 09:46 -3,5 C 86 % 1014,1 hPa 0,0 l/m 0,0 km/h (0 Bft) O-NO 67 -5,5 C -3,5 C
24.01.2013 09:51 -3,5 C 86 % 1014,4 hPa 0,0 l/m 1,4 km/h (1 Bft) O-NO 67 -5,5 C -3,5 C
24.01.2013 09:56 -3,4 C 86 % 1014,4 hPa 0,0 l/m 2,9 km/h (1 Bft) O-NO 67 -5,4 C -3,4 C
24.01.2013 10:01 -3,4 C 86 % 1014,4 hPa 0,0 l/m 4,0 km/h (1 Bft) NO 45 -5,4 C -3,4 C
24.01.2013 10:06 -3,3 C 86 % 1014,4 hPa 0,0 l/m 1,8 km/h (1 Bft) NO 45 -5,3 C -3,3 C
24.01.2013 10:11 -3,3 C 86 % 1014,5 hPa 0,0 l/m 1,4 km/h (1 Bft) NO 45 -5,3 C -3,3 C
24.01.2013 10:16 -3,2 C 85 % 1014,6 hPa 0,0 l/m 3,2 km/h (1 Bft) O 90 -5,4 C -3,2 C
24.01.2013 10:21 -3,1 C 85 % 1014,6 hPa 0,0 l/m 3,2 km/h (1 Bft) O 90 -5,3 C -3,1 C
24.01.2013 10:26 -3,0 C 85 % 1014,6 hPa 0,0 l/m 2,9 km/h (1 Bft) O-NO 67 -5,2 C -3,0 C
24.01.2013 10:31 -3,0 C 84 % 1014,6 hPa 0,0 l/m 3,6 km/h (1 Bft) NO 45 -5,3 C -3,0 C
24.01.2013 10:36 -2,9 C 84 % 1014,6 hPa 0,0 l/m 3,2 km/h (1 Bft) N-NO 22 -5,2 C -2,9 C
24.01.2013 10:41 -2,8 C 84 % 1014,6 hPa 0,0 l/m 0,0 km/h (0 Bft) NO 45 -5,1 C -2,8 C
24.01.2013 10:46 -2,8 C 84 % 1014,6 hPa 0,0 l/m 2,5 km/h (1 Bft) O-NO 67 -5,1 C -2,8 C
24.01.2013 10:51 -2,7 C 83 % 1014,7 hPa 0,0 l/m 4,0 km/h (1 Bft) O-NO 67 -5,2 C -2,7 C
24.01.2013 10:56 -2,7 C 83 % 1014,8 hPa 0,0 l/m 2,9 km/h (1 Bft) O-NO 67 -5,2 C -2,7 C
24.01.2013 11:01 -2,7 C 83 % 1014,9 hPa 0,0 l/m 2,2 km/h (1 Bft) O-NO 67 -5,2 C -2,7 C
24.01.2013 11:06 -2,5 C 83 % 1014,9 hPa 0,0 l/m 1,8 km/h (1 Bft) O 90 -5,0 C -2,5 C
24.01.2013 11:11 -2,4 C 82 % 1015,1 hPa 0,0 l/m 1,8 km/h (1 Bft) O-NO 67 -5,0 C -2,4 C
24.01.2013 11:16 -2,2 C 82 % 1015,2 hPa 0,0 l/m 2,9 km/h (1 Bft) O-NO 67 -4,8 C -2,2 C
24.01.2013 11:21 -2,1 C 82 % 1015,2 hPa 0,0 l/m 0,0 km/h (0 Bft) NO 45 -4,7 C -2,1 C
24.01.2013 11:26 -2,1 C 81 % 1015,1 hPa 0,0 l/m 1,4 km/h (1 Bft) NO 45 -4,9 C -2,1 C
24.01.2013 11:31 -1,9 C 81 % 1015,0 hPa 0,0 l/m 0,0 km/h (0 Bft) O-NO 67 -4,7 C -1,9 C
24.01.2013 11:36 -1,9 C 81 % 1015,1 hPa 0,0 l/m 2,2 km/h (1 Bft) O-NO 67 -4,7 C -1,9 C
24.01.2013 11:41 -1,8 C 80 % 1015,1 hPa 0,0 l/m 1,4 km/h (1 Bft) O-NO 67 -4,8 C -1,8 C
24.01.2013 11:46 -1,8 C 80 % 1015,0 hPa 0,0 l/m 2,5 km/h (1 Bft) N-NO 22 -4,8 C -1,8 C
24.01.2013 11:51 -1,8 C 80 % 1015,1 hPa 0,0 l/m 2,5 km/h (1 Bft) O-NO 67 -4,8 C -1,8 C
24.01.2013 11:56 -1,7 C 80 % 1015,1 hPa 0,0 l/m 0,0 km/h (0 Bft) NO 45 -4,7 C -1,7 C
24.01.2013 12:01 -1,7 C 79 % 1015,1 hPa 0,0 l/m 2,5 km/h (1 Bft) N 360 -4,8 C -1,7 C
24.01.2013 12:06 -1,7 C 79 % 1015,0 hPa 0,0 l/m 0,0 km/h (0 Bft) N-NO 22 -4,8 C -1,7 C
24.01.2013 12:11 -1,8 C 79 % 1015,1 hPa 0,0 l/m 2,5 km/h (1 Bft) NO 45 -4,9 C -1,8 C
24.01.2013 12:16 -1,7 C 79 % 1015,1 hPa 0,0 l/m 3,6 km/h (1 Bft) N 360 -4,8 C -1,7 C
24.01.2013 12:21 -1,7 C 78 % 1015,2 hPa 0,0 l/m 4,0 km/h (1 Bft) NO 45 -5,0 C -1,7 C
24.01.2013 12:26 -1,7 C 78 % 1015,2 hPa 0,0 l/m 3,6 km/h (1 Bft) O-NO 67 -5,0 C -1,7 C
24.01.2013 12:31 -1,7 C 78 % 1015,1 hPa 0,0 l/m 5,0 km/h (1 Bft) O-NO 67 -5,0 C -3,5 C
24.01.2013 12:36 -1,7 C 78 % 1015,1 hPa 0,0 l/m 3,6 km/h (1 Bft) O-SO 112 -5,0 C -1,7 C
24.01.2013 12:41 -1,8 C 78 % 1015,1 hPa 0,0 l/m 5,8 km/h (2 Bft) N 360 -5,1 C -4,0 C
24.01.2013 12:46 -1,8 C 78 % 1015,1 hPa 0,0 l/m 1,1 km/h (1 Bft) NO 45 -5,1 C -1,8 C
24.01.2013 12:51 -1,7 C 78 % 1015,3 hPa 0,0 l/m 0,0 km/h (0 Bft) O-NO 67 -5,0 C -1,7 C
24.01.2013 12:56 -1,7 C 79 % 1015,1 hPa 0,0 l/m 2,2 km/h (1 Bft) N-NO 22 -4,8 C -1,7 C
24.01.2013 13:01 -1,7 C 79 % 1015,3 hPa 0,0 l/m 4,3 km/h (1 Bft) O-NO 67 -4,8 C -1,7 C
24.01.2013 13:06 -1,7 C 79 % 1015,2 hPa 0,0 l/m 5,8 km/h (2 Bft) NO 45 -4,8 C -3,9 C
24.01.2013 13:11 -1,8 C 79 % 1015,1 hPa 0,0 l/m 2,5 km/h (1 Bft) O-NO 67 -4,9 C -1,8 C
24.01.2013 13:16 -1,8 C 79 % 1015,4 hPa 0,0 l/m 4,7 km/h (1 Bft) O-NO 67 -4,9 C -3,5 C
24.01.2013 13:21 -1,8 C 79 % 1015,3 hPa 0,0 l/m 0,0 km/h (0 Bft) O-NO 67 -4,9 C -1,8 C
24.01.2013 13:26 -1,8 C 79 % 1015,4 hPa 0,0 l/m 6,5 km/h (2 Bft) O-NO 67 -4,9 C -4,3 C
24.01.2013 13:31 -1,8 C 79 % 1015,3 hPa 0,0 l/m 8,6 km/h (2 Bft) O-NO 67 -4,9 C -5,0 C
24.01.2013 13:36 -1,9 C 79 % 1015,3 hPa 0,0 l/m 9,0 km/h (2 Bft) O-NO 67 -5,0 C -5,3 C
24.01.2013 13:41 -1,9 C 79 % 1015,3 hPa 0,0 l/m 6,1 km/h (2 Bft) NO 45 -5,0 C -4,3 C
24.01.2013 13:46 -2,1 C 79 % 1015,3 hPa 0,0 l/m 2,9 km/h (1 Bft) NO 45 -5,2 C -2,1 C
24.01.2013 13:51 -1,9 C 79 % 1015,5 hPa 0,0 l/m 4,7 km/h (1 Bft) NO 45 -5,0 C -3,6 C
24.01.2013 13:56 -1,9 C 79 % 1015,5 hPa 0,0 l/m 3,2 km/h (1 Bft) NO 45 -5,0 C -1,9 C
24.01.2013 14:01 -1,9 C 79 % 1015,4 hPa 0,0 l/m 5,0 km/h (1 Bft) NO 45 -5,0 C -3,7 C
24.01.2013 14:06 -1,9 C 79 % 1015,4 hPa 0,0 l/m 4,0 km/h (1 Bft) O 90 -5,0 C -1,9 C
24.01.2013 14:11 -1,9 C 79 % 1015,4 hPa 0,0 l/m 6,1 km/h (2 Bft) O-NO 67 -5,0 C -4,3 C
24.01.2013 14:16 -1,8 C 79 % 1015,4 hPa 0,0 l/m 6,1 km/h (2 Bft) NO 45 -4,9 C -4,1 C
24.01.2013 14:21 -1,8 C 78 % 1015,5 hPa 0,0 l/m 4,0 km/h (1 Bft) O-NO 67 -5,1 C -1,8 C
24.01.2013 14:26 -1,8 C 78 % 1015,5 hPa 0,0 l/m 2,5 km/h (1 Bft) NO 45 -5,1 C -1,8 C
24.01.2013 14:31 -1,8 C 78 % 1015,6 hPa 0,0 l/m 3,6 km/h (1 Bft) O-NO 67 -5,1 C -1,8 C
24.01.2013 14:36 -1,6 C 78 % 1015,5 hPa 0,0 l/m 3,2 km/h (1 Bft) NO 45 -4,9 C -1,6 C
24.01.2013 14:41 -1,6 C 78 % 1015,6 hPa 0,0 l/m 2,2 km/h (1 Bft) NO 45 -4,9 C -1,6 C
24.01.2013 14:46 -1,6 C 77 % 1015,6 hPa 0,0 l/m 0,0 km/h (0 Bft) NO 45 -5,1 C -1,6 C
24.01.2013 14:51 -1,6 C 77 % 1015,6 hPa 0,0 l/m 2,9 km/h (1 Bft) N-NO 22 -5,1 C -1,6 C
24.01.2013 14:56 -1,6 C 77 % 1015,8 hPa 0,0 l/m 6,1 km/h (2 Bft) NO 45 -5,1 C -3,9 C
24.01.2013 15:01 -1,6 C 77 % 1015,7 hPa 0,0 l/m 3,2 km/h (1 Bft) O-NO 67 -5,1 C -1,6 C
24.01.2013 15:06 -1,6 C 77 % 1015,7 hPa 0,0 l/m 6,8 km/h (2 Bft) NO 45 -5,1 C -4,2 C
24.01.2013 15:11 -1,7 C 77 % 1015,7 hPa 0,0 l/m 8,3 km/h (2 Bft) O-NO 67 -5,2 C -4,8 C
24.01.2013 15:16 -1,7 C 77 % 1015,7 hPa 0,0 l/m 2,5 km/h (1 Bft) O 90 -5,2 C -1,7 C
24.01.2013 15:21 -1,7 C 77 % 1015,8 hPa 0,0 l/m 2,5 km/h (1 Bft) NO 45 -5,2 C -1,7 C
24.01.2013 15:26 -1,7 C 76 % 1015,9 hPa 0,0 l/m 2,2 km/h (1 Bft) NO 45 -5,4 C -1,7 C
24.01.2013 15:31 -1,8 C 76 % 1016,0 hPa 0,0 l/m 3,2 km/h (1 Bft) NO 45 -5,5 C -1,8 C
24.01.2013 15:36 -1,8 C 77 % 1016,0 hPa 0,0 l/m 2,9 km/h (1 Bft) NO 45 -5,3 C -1,8 C
24.01.2013 15:41 -1,8 C 77 % 1016,1 hPa 0,0 l/m 0,0 km/h (0 Bft) O-NO 67 -5,3 C -1,8 C
24.01.2013 15:46 -1,8 C 77 % 1016,1 hPa 0,0 l/m 2,2 km/h (1 Bft) NO 45 -5,3 C -1,8 C
24.01.2013 15:51 -1,8 C 77 % 1016,3 hPa 0,0 l/m 1,4 km/h (1 Bft) NO 45 -5,3 C -1,8 C
24.01.2013 15:56 -1,8 C 77 % 1016,3 hPa 0,0 l/m 0,0 km/h (0 Bft) O-NO 67 -5,3 C -1,8 C
24.01.2013 16:01 -1,8 C 77 % 1016,3 hPa 0,0 l/m 2,2 km/h (1 Bft) N 360 -5,3 C -1,8 C
24.01.2013 16:06 -1,8 C 77 % 1016,3 hPa 0,0 l/m 7,9 km/h (2 Bft) N-NO 22 -5,3 C -4,8 C
24.01.2013 16:11 -1,9 C 77 % 1016,4 hPa 0,0 l/m 3,2 km/h (1 Bft) O-NO 67 -5,4 C -1,9 C
24.01.2013 16:16 -1,9 C 77 % 1016,4 hPa 0,0 l/m 0,0 km/h (0 Bft) N-NO 22 -5,4 C -1,9 C
24.01.2013 16:21 -1,9 C 77 % 1016,4 hPa 0,0 l/m 4,7 km/h (1 Bft) N 360 -5,4 C -3,6 C
24.01.2013 16:26 -1,9 C 78 % 1016,5 hPa 0,0 l/m 2,2 km/h (1 Bft) N 360 -5,2 C -1,9 C
24.01.2013 16:31 -2,1 C 78 % 1016,6 hPa 0,0 l/m 3,6 km/h (1 Bft) N 360 -5,4 C -2,1 C
24.01.2013 16:36 -2,1 C 78 % 1016,6 hPa 0,0 l/m 2,9 km/h (1 Bft) N-NO 22 -5,4 C -2,1 C
24.01.2013 16:41 -2,1 C 79 % 1016,6 hPa 0,0 l/m 2,2 km/h (1 Bft) N-NO 22 -5,2 C -2,1 C
24.01.2013 16:46 -2,2 C 79 % 1016,7 hPa 0,0 l/m 1,8 km/h (1 Bft) N 360 -5,3 C -2,2 C
24.01.2013 16:51 -2,2 C 79 % 1016,6 hPa 0,0 l/m 0,0 km/h (0 Bft) N-NO 22 -5,3 C -2,2 C
24.01.2013 16:56 -2,2 C 79 % 1016,7 hPa 0,0 l/m 1,4 km/h (1 Bft) N 360 -5,3 C -2,2 C
24.01.2013 17:01 -2,4 C 79 % 1016,7 hPa 0,0 l/m 0,0 km/h (0 Bft) N-NO 22 -5,5 C -2,4 C
24.01.2013 17:06 -2,4 C 79 % 1016,9 hPa 0,0 l/m 0,0 km/h (0 Bft) NO 45 -5,5 C -2,4 C
24.01.2013 17:11 -2,4 C 79 % 1017,1 hPa 0,0 l/m 2,2 km/h (1 Bft) N-NO 22 -5,5 C -2,4 C
24.01.2013 17:16 -2,4 C 79 % 1017,1 hPa 0,0 l/m 3,6 km/h (1 Bft) N-NO 22 -5,5 C -2,4 C
24.01.2013 17:21 -2,5 C 79 % 1017,0 hPa 0,0 l/m 2,2 km/h (1 Bft) N 360 -5,6 C -2,5 C
24.01.2013 17:26 -2,6 C 79 % 1017,2 hPa 0,0 l/m 1,4 km/h (1 Bft) NO 45 -5,7 C -2,6 C
24.01.2013 17:31 -2,6 C 79 % 1017,2 hPa 0,0 l/m 4,0 km/h (1 Bft) O-NO 67 -5,7 C -2,6 C
24.01.2013 17:36 -2,6 C 79 % 1017,2 hPa 0,0 l/m 3,2 km/h (1 Bft) N-NO 22 -5,7 C -2,6 C
24.01.2013 17:41 -2,7 C 80 % 1017,2 hPa 0,0 l/m 3,6 km/h (1 Bft) N-NO 22 -5,7 C -2,7 C
24.01.2013 17:46 -2,7 C 80 % 1017,5 hPa 0,0 l/m 2,2 km/h (1 Bft) N-NO 22 -5,7 C -2,7 C
24.01.2013 17:51 -2,8 C 80 % 1017,5 hPa 0,0 l/m 2,5 km/h (1 Bft) N-NO 22 -5,8 C -2,8 C
24.01.2013 17:56 -2,9 C 80 % 1017,5 hPa 0,0 l/m 0,0 km/h (0 Bft) NO 45 -5,9 C -2,9 C
24.01.2013 18:01 -3,1 C 80 % 1017,6 hPa 0,0 l/m 0,0 km/h (0 Bft) NO 45 -6,0 C -3,1 C
24.01.2013 18:06 -3,1 C 80 % 1017,7 hPa 0,0 l/m 0,0 km/h (0 Bft) O-NO 67 -6,0 C -3,1 C
24.01.2013 18:11 -3,2 C 80 % 1017,7 hPa 0,0 l/m 0,0 km/h (0 Bft) NO 45 -6,1 C -3,2 C
24.01.2013 18:16 -3,4 C 80 % 1017,7 hPa 0,0 l/m 1,8 km/h (1 Bft) NO 45 -6,3 C -3,4 C
24.01.2013 18:21 -3,5 C 80 % 1017,6 hPa 0,0 l/m 0,0 km/h (0 Bft) N-NO 22 -6,4 C -3,5 C
24.01.2013 18:26 -3,6 C 80 % 1017,7 hPa 0,0 l/m 1,4 km/h (1 Bft) NO 45 -6,5 C -3,6 C
24.01.2013 18:31 -3,7 C 81 % 1017,8 hPa 0,0 l/m 0,0 km/h (0 Bft) N-NO 22 -6,5 C -3,7 C
24.01.2013 18:36 -3,9 C 81 % 1017,8 hPa 0,0 l/m 1,8 km/h (1 Bft) NO 45 -6,7 C -3,9 C
24.01.2013 18:41 -3,9 C 81 % 1017,8 hPa 0,0 l/m 2,5 km/h (1 Bft) NO 45 -6,7 C -3,9 C
24.01.2013 18:46 -4,1 C 82 % 1017,8 hPa 0,0 l/m 6,1 km/h (2 Bft) O-NO 67 -6,7 C -6,8 C
24.01.2013 18:51 -4,1 C 82 % 1017,8 hPa 0,0 l/m 1,8 km/h (1 Bft) NO 45 -6,7 C -4,1 C
24.01.2013 18:56 -4,2 C 82 % 1017,9 hPa 0,0 l/m 2,2 km/h (1 Bft) NO 45 -6,8 C -4,2 C
24.01.2013 19:01 -4,3 C 82 % 1018,1 hPa 0,0 l/m 0,0 km/h (0 Bft) O-NO 67 -6,9 C -4,3 C
24.01.2013 19:06 -4,4 C 82 % 1018,0 hPa 0,0 l/m 1,4 km/h (1 Bft) NO 45 -7,0 C -4,4 C
24.01.2013 19:11 -4,5 C 82 % 1018,2 hPa 0,0 l/m 5,8 km/h (2 Bft) NO 45 -7,1 C -7,1 C
24.01.2013 19:16 -4,6 C 83 % 1018,3 hPa 0,0 l/m 1,8 km/h (1 Bft) NO 45 -7,0 C -4,6 C
24.01.2013 19:21 -4,7 C 83 % 1018,4 hPa 0,0 l/m 2,2 km/h (1 Bft) O-NO 67 -7,1 C -4,7 C
24.01.2013 19:26 -4,7 C 83 % 1018,4 hPa 0,0 l/m 1,8 km/h (1 Bft) O-NO 67 -7,1 C -4,7 C
24.01.2013 19:31 -4,8 C 83 % 1018,3 hPa 0,0 l/m 3,6 km/h (1 Bft) NO 45 -7,2 C -4,8 C
24.01.2013 19:36 -4,9 C 83 % 1018,4 hPa 0,0 l/m 2,2 km/h (1 Bft) NO 45 -7,3 C -4,9 C
24.01.2013 19:41 -5,0 C 83 % 1018,5 hPa 0,0 l/m 2,2 km/h (1 Bft) O-NO 67 -7,4 C -5,0 C
24.01.2013 19:46 -5,1 C 83 % 1018,6 hPa 0,0 l/m 3,2 km/h (1 Bft) NO 45 -7,5 C -5,1 C
24.01.2013 19:51 -5,1 C 83 % 1018,6 hPa 0,0 l/m 1,1 km/h (1 Bft) NO 45 -7,5 C -5,1 C
24.01.2013 19:56 -5,2 C 83 % 1018,7 hPa 0,0 l/m 3,2 km/h (1 Bft) O-NO 67 -7,6 C -5,2 C
24.01.2013 20:01 -5,3 C 84 % 1018,8 hPa 0,0 l/m 1,8 km/h (1 Bft) NO 45 -7,6 C -5,3 C
24.01.2013 20:06 -5,4 C 84 % 1018,8 hPa 0,0 l/m 2,9 km/h (1 Bft) NO 45 -7,7 C -5,4 C
24.01.2013 20:11 -5,5 C 84 % 1019,0 hPa 0,0 l/m 1,8 km/h (1 Bft) NO 45 -7,8 C -5,5 C
24.01.2013 20:16 -5,6 C 84 % 1019,1 hPa 0,0 l/m 2,2 km/h (1 Bft) NO 45 -7,9 C -5,6 C
24.01.2013 20:21 -5,6 C 84 % 1019,2 hPa 0,0 l/m 0,0 km/h (0 Bft) NO 45 -7,9 C -5,6 C
24.01.2013 20:26 -5,7 C 84 % 1019,2 hPa 0,0 l/m 1,8 km/h (1 Bft) NO 45 -8,0 C -5,7 C
24.01.2013 20:31 -5,7 C 84 % 1019,2 hPa 0,0 l/m 3,2 km/h (1 Bft) O-NO 67 -8,0 C -5,7 C
24.01.2013 20:36 -5,8 C 85 % 1019,2 hPa 0,0 l/m 3,2 km/h (1 Bft) O-NO 67 -7,9 C -5,8 C
24.01.2013 20:41 -5,8 C 85 % 1019,3 hPa 0,0 l/m 3,2 km/h (1 Bft) O-NO 67 -7,9 C -5,8 C
24.01.2013 20:46 -5,9 C 85 % 1019,3 hPa 0,0 l/m 2,5 km/h (1 Bft) O-NO 67 -8,0 C -5,9 C
24.01.2013 20:51 -5,9 C 86 % 1019,4 hPa 0,0 l/m 3,6 km/h (1 Bft) O-NO 67 -7,9 C -5,9 C
24.01.2013 20:56 -5,9 C 86 % 1019,5 hPa 0,0 l/m 0,0 km/h (0 Bft) O-NO 67 -7,9 C -5,9 C
24.01.2013 21:01 -6,1 C 86 % 1019,6 hPa 0,0 l/m 2,2 km/h (1 Bft) NO 45 -8,0 C -6,1 C
24.01.2013 21:06 -6,1 C 86 % 1019,7 hPa 0,0 l/m 0,0 km/h (0 Bft) NO 45 -8,0 C -6,1 C
24.01.2013 21:11 -6,1 C 86 % 1019,7 hPa 0,0 l/m 1,8 km/h (1 Bft) NO 45 -8,0 C -6,1 C
24.01.2013 21:16 -6,1 C 86 % 1019,9 hPa 0,0 l/m 0,0 km/h (0 Bft) O-NO 67 -8,0 C -6,1 C
24.01.2013 21:21 -6,2 C 86 % 1020,0 hPa 0,0 l/m 0,0 km/h (0 Bft) O-NO 67 -8,1 C -6,2 C
24.01.2013 21:26 -6,2 C 86 % 1019,7 hPa 0,0 l/m 3,6 km/h (1 Bft) NO 45 -8,1 C -6,2 C
24.01.2013 21:31 -6,4 C 86 % 1020,0 hPa 0,0 l/m 0,0 km/h (0 Bft) NO 45 -8,3 C -6,4 C
24.01.2013 21:36 -6,5 C 86 % 1020,0 hPa 0,0 l/m 0,0 km/h (0 Bft) NO 45 -8,4 C -6,5 C
24.01.2013 21:41 -6,6 C 86 % 1019,9 hPa 0,0 l/m 0,0 km/h (0 Bft) NO 45 -8,5 C -6,6 C
24.01.2013 21:46 -6,6 C 86 % 1020,0 hPa 0,0 l/m 0,0 km/h (0 Bft) NO 45 -8,5 C -6,6 C
24.01.2013 21:51 -6,7 C 86 % 1020,0 hPa 0,0 l/m 3,6 km/h (1 Bft) O-NO 67 -8,6 C -6,7 C
24.01.2013 21:56 -6,8 C 86 % 1020,1 hPa 0,0 l/m 2,9 km/h (1 Bft) NO 45 -8,7 C -6,8 C
24.01.2013 22:01 -6,9 C 87 % 1020,1 hPa 0,0 l/m 2,2 km/h (1 Bft) NO 45 -8,7 C -6,9 C
24.01.2013 22:06 -6,9 C 87 % 1020,2 hPa 0,0 l/m 0,0 km/h (0 Bft) NO 45 -8,7 C -6,9 C
24.01.2013 22:11 -6,9 C 87 % 1020,4 hPa 0,0 l/m 2,5 km/h (1 Bft) NO 45 -8,7 C -6,9 C
24.01.2013 22:16 -6,9 C 87 % 1020,4 hPa 0,0 l/m 2,5 km/h (1 Bft) O-NO 67 -8,7 C -6,9 C
24.01.2013 22:21 -6,9 C 87 % 1020,4 hPa 0,0 l/m 3,6 km/h (1 Bft) O-NO 67 -8,7 C -6,9 C
24.01.2013 22:26 -6,9 C 87 % 1020,4 hPa 0,0 l/m 1,4 km/h (1 Bft) O-NO 67 -8,7 C -6,9 C
24.01.2013 22:31 -7,0 C 87 % 1020,5 hPa 0,0 l/m 2,2 km/h (1 Bft) O-NO 67 -8,8 C -7,0 C
24.01.2013 22:36 -7,0 C 87 % 1020,5 hPa 0,0 l/m 1,4 km/h (1 Bft) NO 45 -8,8 C -7,0 C
24.01.2013 22:41 -7,1 C 87 % 1020,7 hPa 0,0 l/m 0,0 km/h (0 Bft) NO 45 -8,9 C -7,1 C
24.01.2013 22:46 -7,1 C 87 % 1020,8 hPa 0,0 l/m 3,6 km/h (1 Bft) O-NO 67 -8,9 C -7,1 C
24.01.2013 22:51 -7,1 C 87 % 1020,7 hPa 0,0 l/m 1,1 km/h (1 Bft) O-NO 67 -8,9 C -7,1 C
24.01.2013 22:56 -7,2 C 87 % 1020,8 hPa 0,0 l/m 2,2 km/h (1 Bft) O-NO 67 -9,0 C -7,2 C
24.01.2013 23:01 -7,2 C 87 % 1021,0 hPa 0,0 l/m 0,0 km/h (0 Bft) O-NO 67 -9,0 C -7,2 C
24.01.2013 23:06 -7,2 C 87 % 1021,0 hPa 0,0 l/m 0,0 km/h (0 Bft) O-NO 67 -9,0 C -7,2 C
24.01.2013 23:11 -7,3 C 87 % 1021,0 hPa 0,0 l/m 0,0 km/h (0 Bft) O-NO 67 -9,1 C -7,3 C
24.01.2013 23:16 -7,3 C 87 % 1021,1 hPa 0,0 l/m 2,2 km/h (1 Bft) O-NO 67 -9,1 C -7,3 C
24.01.2013 23:21 -7,4 C 87 % 1021,1 hPa 0,0 l/m 1,8 km/h (1 Bft) O-NO 67 -9,2 C -7,4 C
24.01.2013 23:26 -7,5 C 87 % 1021,1 hPa 0,0 l/m 0,0 km/h (0 Bft) O-NO 67 -9,3 C -7,5 C
24.01.2013 23:31 -7,5 C 87 % 1021,1 hPa 0,0 l/m 0,0 km/h (0 Bft) O-NO 67 -9,3 C -7,5 C
24.01.2013 23:36 -7,6 C 88 % 1021,2 hPa 0,0 l/m 0,0 km/h (0 Bft) O-NO 67 -9,2 C -7,6 C
24.01.2013 23:41 -7,6 C 87 % 1021,2 hPa 0,0 l/m 0,0 km/h (0 Bft) O-NO 67 -9,4 C -7,6 C
24.01.2013 23:46 -7,7 C 87 % 1021,2 hPa 0,0 l/m 0,0 km/h (0 Bft) O-NO 67 -9,5 C -7,7 C
24.01.2013 23:51 -7,8 C 87 % 1021,4 hPa 0,0 l/m 0,0 km/h (0 Bft) O-NO 67 -9,6 C -7,8 C
24.01.2013 23:56 -7,9 C 88 % 1021,4 hPa 0,0 l/m 1,1 km/h (1 Bft) NO 45 -9,5 C -7,9 C
_ Min-Zeit 23:56 15:26 01:26 - 00:06 - - 23:51 23:56
Minimum _ -7,9 C 76 % 1011,9 hPa - 0,0 km/h (0 Bft) - - -9,6 C -7,9 C
_ Max-Zeit 14:36 23:36 23:51 00:01 13:36 - - 11:56 14:36
Maximum _ -1,6 C 88 % 1021,4 hPa 0,0 l/m 9,0 km/h
O-NO (2 Bft)
- - -4,7 C -1,6 C
Durchschnitt _ -3,9 C 84 % 1015,4 hPa #0,0 l/m 1,5 km/h (1 Bft) O-NO - -6,2 C -4,0 C
(c) by David Heller